SB KEPS @ AMSAT $ORB25241.1
2Line Orbital Elements 25241.AMSAT
QST de KM1P
AMSAT Orbital Elements for Amateur Satellites in TLE Format
From Orbital Analysis Auxilliary Summer Office
New England Sci-Tech STEM Education Center
Narragansett RI August 29, 2025
To all radio amateurs
These element sets describe the orbits of various satellites
in use by the amateur radio community. For details see:
www.amsat.org/keplerian-elements-formats/
A daily update of element sets is available at:
www.amsat.org/tle/daily-bulletin.txt
or without bulletin text:
www.amsat.org/tle/dailytle.txt
AO-07
1 07530U 74089B 25240.61620456 -.00000045 00000-0 87001-5 0 9997
2 07530 101.9972 245.7402 0012070 331.2602 146.6482 12.53691083323857
UO-11
1 14781U 84021B 25240.47662817 .00001807 00000-0 19493-3 0 9995
2 14781 97.7622 205.3054 0009387 75.6663 284.5596 14.89591578213535
AO-27
1 22825U 93061C 25240.14801653 .00000121 00000-0 63402-4 0 9992
2 22825 98.7302 302.0762 0007497 235.4291 124.6184 14.30821288665092
FO-29
1 24278U 96046B 25240.60330160 .00000011 00000-0 44747-4 0 9992
2 24278 98.5624 123.9264 0350574 135.1370 227.8683 13.53252179433598
NOAA-15
1 25338U 98030A 25240.60481525 .00000144 00000-0 76812-4 0 9992
2 25338 98.5331 263.8008 0011297 121.6632 238.5652 14.27007567419565
GO-32
1 25397U 98043D 25240.49381827 .00000098 00000-0 62374-4 0 9998
2 25397 98.9783 221.3095 0001413 26.6167 333.5083 14.24332513409669
ISS
1 25544U 98067A 25240.46241056 .00013034 00000-0 23388-3 0 9999
2 25544 51.6343 308.8470 0003297 283.7432 76.3190 15.50252420526379
NO-44
1 26931U 01043C 25240.56036251 .00000139 00000-0 82927-4 0 9995
2 26931 67.0498 281.0444 0006920 275.9303 84.1010 14.31767542248554
SO-50
1 27607U 02058C 25240.59895957 .00001360 00000-0 18431-3 0 9997
2 27607 64.5537 313.4946 0064735 317.0115 42.5942 14.81817531221085
CO-55
1 27844U 03031E 25240.56924262 .00000387 00000-0 18726-3 0 9996
2 27844 98.6784 247.8191 0008815 321.4761 38.5788 14.24049964150027
CO-57
1 27848U 03031J 25240.55522125 .00000338 00000-0 16835-3 0 9996
2 27848 98.6812 247.7500 0009090 340.1765 19.9059 14.23377238149742
RS-22
1 27939U 03042A 25240.59081633 .00001497 00000-0 24371-3 0 9998
2 27939 98.3356 52.0164 0012510 114.1599 333.0276 14.72523668172472
CO-58
1 28895U 05043F 25240.36879272 .00002070 00000-0 34336-3 0 9992
2 28895 98.2608 25.7746 0015390 57.1826 303.0860 14.71254831 58677
CO-65
1 32785U 08021C 25240.60128094 .00008003 00000-0 56554-3 0 9998
2 32785 97.7935 212.4252 0008088 308.4645 51.5855 15.05152782941110
CO-66
1 32791U 08021J 25240.51576198 .00017928 00000-0 82314-3 0 9996
2 32791 97.7345 222.4632 0001715 212.6641 147.4488 15.20464925942634
RS-30
1 32953U 08025A 25240.47854634 .00000042 00000-0 22938-3 0 9994
2 32953 82.5065 177.4975 0018004 229.8874 130.0629 12.43167609783326
NOAA-19
1 33591U 09005A 25240.55186215 .00000132 00000-0 93993-4 0 9994
2 33591 98.9912 305.6833 0014601 135.2439 224.9914 14.13399847853149
SRMSAT
1 37841U 11058D 25240.47907854 .00000443 00000-0 96830-4 0 9996
2 37841 19.9731 31.0351 0011658 223.8473 175.3385 14.11456588716412
ZACUBE-1
1 39417U 13066B 25240.46387523 .00005385 00000-0 46052-3 0 9992
2 39417 97.7861 197.1145 0044352 143.4134 217.0131 14.97278221636867
Delfi-N3xt
1 39428U 13066N 25239.73497600 .00008482 00000-0 84337-3 0 9999
2 39428 97.8293 156.5270 0085406 99.4163 261.6721 14.89191188630854
GOMX-1
1 39430U 13066Q 25240.58741396 .00001920 00000-0 30319-3 0 9992
2 39430 97.6751 94.3236 0130607 296.6795 62.1087 14.67914187626965
LO-74
1 39440U 13066AA 25240.38076739 .00004994 00000-0 50054-3 0 9995
2 39440 97.8528 184.4305 0059564 276.9090 82.5354 14.90495842633328
AO-73
1 39444U 13066AE 25240.44874272 .00010283 00000-0 74836-3 0 9996
2 39444 97.7883 202.7422 0042651 115.9889 244.5739 15.03248516635582
DTUSAT-2
1 40030U 14033W 25240.47582884 .00009668 00000-0 61140-3 0 9991
2 40030 98.0631 216.2418 0010248 140.8376 219.3595 15.09205991608441
EO-80
1 40032U 14033Y 25240.49203013 .00010200 00000-0 64340-3 0 9998
2 40032 98.0506 215.8018 0010381 91.5372 268.7044 15.09282230608427
LILACSAT-2
1 40908U 15049K 25240.61075861 .00015531 00000-0 38304-3 0 9993
2 40908 97.5040 262.9734 0007596 221.1127 138.9548 15.40608686550545
IO-86
1 40931U 15052B 25151.18580175 .00001241 00000-0 78118-4 0 9996
2 40931 6.0006 24.0987 0012733 338.8432 21.1169 14.78805930523159
Horyu-4
1 41340U 16012D 25240.47311714 .00031506 00000-0 75385-3 0 9999
2 41340 30.9962 313.4065 0007140 169.1063 190.9739 15.40205647525108
Lapan A3
1 41603U 16040E 25240.61280262 .00004504 00000-0 15566-3 0 9994
2 41603 97.1409 242.1167 0010388 354.5774 5.5353 15.30361821510023
CAS-2T
1 41847U 16066G 25240.18234657 .00000739 00000-0 11529-3 0 9992
2 41847 98.4150 313.9399 0344371 297.7461 58.9200 14.43670084462506
CAS-4B
1 42759U 17034B 25240.36315661 .00160131 00000-0 95318-3 0 9997
2 42759 43.0022 202.3718 0021020 138.1475 222.1006 15.76404639455133
CAS-4A
1 42761U 17034D 25240.24520463 .00192406 00000-0 10186-2 0 9994
2 42761 43.0054 199.0401 0021664 142.4717 217.7670 15.78897863455148
TechnoSat
1 42829U 17042E 25240.52505957 .00004367 00000-0 33477-3 0 9997
2 42829 97.4010 45.4514 0017918 17.7887 342.3962 15.02196408442729
AO-91
1 43017U 17073E 25240.42633609 .00008705 00000-0 43903-3 0 9991
2 43017 97.5128 109.1942 0167109 254.1330 104.1423 15.05947877421226
S-Net D
1 43186U 18014G 25240.30334757 .00006138 00000-0 35592-3 0 9996
2 43186 97.5520 142.3941 0007574 321.0145 39.0539 15.12511217414425
S-Net B
1 43187U 18014H 25240.17747757 .00006159 00000-0 35732-3 0 9999
2 43187 97.5526 142.2453 0008150 315.3083 44.7490 15.12490213414406
S-Net A
1 43188U 18014J 25240.30345070 .00006109 00000-0 35418-3 0 9993
2 43188 97.5534 142.5306 0008044 315.6022 44.4563 15.12516937414426
S-Net C
1 43189U 18014K 25240.18007082 .00006197 00000-0 35943-3 0 9998
2 43189 97.5550 142.4362 0009359 306.3341 53.7025 15.12487168412952
Ten-Koh
1 43677U 18084G 25240.47296951 .00003042 00000-0 24399-3 0 9993
2 43677 98.0835 55.8944 0006806 10.6156 349.5209 15.00901848372220
PO-101
1 43678U 18084H 25240.58549465 .00003713 00000-0 31425-3 0 9990
2 43678 98.1092 59.7997 0009150 35.0712 325.1111 14.98653174372361
QO-100
1 43700U 18090A 25240.24741101 .00000145 00000-0 00000-0 0 9995
2 43700 0.0166 127.2120 0001130 42.7717 281.5932 1.00273056 24737
MinXSS-2
1 43758U 18099A 25240.15689209 .00022146 00000-0 81169-3 0 9990
2 43758 97.4950 306.5454 0010554 228.7080 131.3252 15.27958573369111
AO-95
1 43770U 18099N 25239.89069800 .00012238 00000-0 59560-3 0 9993
2 43770 97.4842 297.1375 0008779 298.5909 61.4441 15.18497339368584
SNUSat 2
1 43782U 18099AA 25240.18962505 .00008872 00000-0 46953-3 0 9995
2 43782 97.4523 293.5232 0010657 232.1172 127.9097 15.15621674368559
SnugLite
1 43784U 18099AC 25240.56226549 .00013352 00000-0 64332-3 0 9990
2 43784 97.4336 293.6238 0002594 209.3349 150.7740 15.18854035368778
ITASat 1
1 43786U 18099AE 25240.55120992 .00008525 00000-0 47450-3 0 9994
2 43786 97.4496 293.1451 0012399 291.1906 68.8001 15.13819631368554
EAGLET 1
1 43790U 18099AJ 25240.56979869 .00005916 00000-0 37110-3 0 9998
2 43790 97.4688 292.8418 0010394 274.7929 85.2113 15.09641256368138
ESEO
1 43792U 18099AL 25240.57248276 .00001458 00000-0 11297-3 0 9997
2 43792 97.4414 285.0230 0010073 246.8152 113.2013 15.02872169367834
JO-97
1 43803U 18099AX 25239.89407326 .00016179 00000-0 70145-3 0 9999
2 43803 97.4590 298.3180 0006623 215.6227 144.4568 15.22427584368837
Suomi 100
1 43804U 18099AY 25240.10838990 .00014317 00000-0 67165-3 0 9991
2 43804 97.4655 297.5868 0011173 224.4668 135.5671 15.19712695368772
ISAT
1 43879U 18111D 25240.22039345 .00027442 00000-0 86679-3 0 9992
2 43879 97.5879 156.5019 0005236 275.4262 84.6382 15.32784533365881
UWE-4
1 43880U 18111E 25239.57505341 .00020476 00000-0 74966-3 0 9990
2 43880 97.5827 153.7290 0008972 298.0677 61.9655 15.28028382365684
Sparrow
1 43881U 18111F 25240.19910584 .00030906 00000-0 93263-3 0 9990
2 43881 97.6040 159.6839 0004408 339.1634 20.9428 15.34217792365985
Prox-1
1 44339U 19036A 25240.34491710 .00016155 00000-0 19822-2 0 9996
2 44339 23.9962 257.2800 0006633 256.4520 103.5239 14.81421304329850
Taurus 1
1 44530U 19059C 25240.56949693 .00009790 00000-0 17653-2 0 9993
2 44530 98.6157 23.8417 0010006 145.2627 214.9231 14.66692319315663
Duchifat 3
1 44854U 19089C 25240.25120565 .00081466 00000-0 12190-2 0 9991
2 44854 36.9390 206.1241 0008098 241.0311 118.9636 15.53793267315382
TO-108
1 44881U 19093C 25240.64030976 .00001120 00000-0 13502-3 0 9993
2 44881 97.7874 314.6031 0013019 334.3206 25.7361 14.85742952307968
FloripaSat 1
1 44885U 19093G 25240.59328411 .00008648 00000-0 71364-3 0 9997
2 44885 97.8142 328.3878 0007736 300.9226 59.1236 14.99223958308735
RS-44
1 44909U 19096E 25240.22068679 .00000038 00000-0 10003-3 0 9992
2 44909 82.5250 174.3744 0218447 109.2343 253.2532 12.79742804264871
UPMSat 2
1 46276U 20061E 25240.25144187 .00165811 00000-0 78047-3 0 9990
2 46276 97.2341 317.9828 0002236 210.7094 149.4045 15.82670139278003
SALSAT
1 46495U 20068K 25240.49727126 .00010224 00000-0 42759-3 0 9994
2 46495 97.8683 222.3055 0009356 238.6045 121.4276 15.23764729270694
TUBIN
1 48900U 21059X 25240.58090438 .00069012 00000-0 62883-3 0 9996
2 48900 97.6782 56.7462 0002395 284.3396 75.7598 15.67697038232545
LEDSAT
1 49069U 21073D 25240.28857544 .00161927 00000-0 11142-2 0 9994
2 49069 97.3810 325.8170 0007061 156.2889 203.8702 15.74133431223918
CUTE
1 49263U 21088D 25239.96661821 .00063550 00000-0 11104-2 0 9991
2 49263 97.4454 318.6966 0004974 310.2937 49.7879 15.50440815216711
TeikyoSat 4
1 49396U 21102B 25240.18844358 .00002498 00000-0 16642-3 0 9996
2 49396 97.4052 275.7348 0011521 214.2013 145.8475 15.07932578208549
Z-Sat
1 49399U 21102E 25240.55364837 .00005132 00000-0 27730-3 0 9997
2 49399 97.3741 279.6905 0017927 181.0478 179.0720 15.14993307209087
KOSEN 1
1 49402U 21102H 25240.55128991 .00009451 00000-0 42468-3 0 9994
2 49402 97.3640 283.7237 0016473 153.8911 206.3159 15.21231722209442
